Weather History for Francistown, Botswana

Change the Weather History Date:

Monday, January 21, 2013

  Actual Average Record
Temperature  
Mean Temperature 75 °F -  
Max Temperature 86 °F 84 °F 96 °F (2003)
Min Temperature 64 °F 65 °F 59 °F (2000)
Cooling Degree Days 10    
Growing Degree Days 25 (Base 50)    
Moisture  
Dew Point 66 °F    
Average Humidity 77    
Maximum Humidity 100    
Minimum Humidity 48    
Precipitation  
Precipitation 0.00 in - - ()
Sea Level Pressure  
Sea Level Pressure 29.90 in    
Wind  
Wind Speed 4 mph ()    
Max Wind Speed 13 mph    
Max Gust Speed -    
Visibility 6.2 miles    
Events      
Averages and records for this station are not official NWS values.
T = Trace of Precipitation, MM = Missing Value Source: Averaged Metar Reports

Daily Weather History Graph

Daily Weather History Graph

Search for Another Location

Airport:

Trip Planner

Search our weather history database for the weather conditions in past years. The results will help you decide how hot, cold, wet, or windy it might be!

Date:

Astronomy

Jan. 21, 2013 Rise Set
Actual Time 5:45 AM CAT 6:57 PM CAT
Civil Twilight 5:21 AM CAT 7:21 PM CAT
Nautical Twilight 4:52 AM CAT 7:49 PM CAT
Astronomical Twilight 4:23 AM CAT 8:19 PM CAT
Moon 2:26 PM CAT (1/21) 12:58 AM CAT (1/21)
Length of Visible Light 14h 00m
Length of Day
13h 11m
Waxing Gibbous, 72% of the Moon is Illuminated
Jan 21
Waxing Gibbous
Jan 27
Full
Feb 3
Last Quarter
Feb 10
New
Feb 17
First Quarter

Hourly Weather History & Observations

Time (CAT) Temp. Heat Index Dew Point Humidity Pressure Visibility Wind Dir Wind Speed Gust Speed Precip Events Conditions
12:00 AM 68.0 °F - 66.2 °F 94% 29.92 in - North 3.5 mph - N/A   Clear
1:00 AM 66.2 °F - 64.4 °F 94% 29.89 in - NW 3.5 mph - N/A   Clear
3:00 AM 66.2 °F - 64.4 °F 94% 29.89 in - West 2.3 mph - N/A   Clear
4:00 AM 64.4 °F - 64.4 °F 100% 29.86 in - NNE 3.5 mph - N/A   Clear
5:00 AM 64.4 °F - 64.4 °F 100% 29.86 in - NNE 2.3 mph - N/A   Clear
6:00 AM 64.4 °F - 64.4 °F 100% 29.89 in 6.2 mi NNW 3.5 mph - N/A   Partly Cloudy
7:00 AM 66.2 °F - 66.2 °F 100% 29.92 in - NW 3.5 mph - N/A   Clear
8:00 AM 70 °F - 68 °F 92%  in 6 mi WNW 5.8 mph - -   Scattered Clouds
8:00 AM 69.8 °F - 68.0 °F 94% 29.92 in - WNW 5.8 mph - N/A   Clear
10:00 AM 77.0 °F - 66.2 °F 69% 29.95 in 6.2 mi Variable 2.3 mph - N/A   Partly Cloudy
11:00 AM 78.8 °F - 66.2 °F 65% 29.95 in 6.2 mi SSW 4.6 mph - N/A   Partly Cloudy
12:00 PM 80.6 °F 82.7 °F 66.2 °F 61% 29.92 in 6.2 mi South 6.9 mph - N/A   Partly Cloudy
1:00 PM 78.8 °F - 66.2 °F 65% 29.92 in 6.2 mi South 5.8 mph - N/A   Partly Cloudy
2:00 PM 84.2 °F 87.3 °F 68.0 °F 58% 29.89 in 6.2 mi SSW 5.8 mph - N/A   Scattered Clouds
3:00 PM 86.0 °F 88.2 °F 66.2 °F 51% 29.86 in 6.2 mi SW 9.2 mph - N/A   Scattered Clouds
4:00 PM 86.0 °F 87.3 °F 64.4 °F 48% 29.86 in 6.2 mi SSE 9.2 mph - N/A   Scattered Clouds
5:00 PM 86.0 °F 87.3 °F 64.4 °F 48% 29.86 in 6.2 mi SSE 11.5 mph - N/A   Scattered Clouds
6:00 PM 82.4 °F 83.9 °F 64.4 °F 54% 29.86 in 6.2 mi South 6.9 mph - N/A   Scattered Clouds
7:00 PM 78.8 °F - 68.0 °F 69% 29.89 in 6.2 mi SE 6.9 mph - N/A   Partly Cloudy
8:00 PM 75.2 °F - 69.8 °F 83% 29.92 in 6.2 mi ESE 10.4 mph - N/A   Scattered Clouds
9:00 PM 73.4 °F - 66.2 °F 78% 29.95 in 6.2 mi East 12.7 mph - N/A   Scattered Clouds